timestamp,wind_dir_avg,wind_spd_max_dir,wind_spd_avg,wind_spd_gust,battery_voltage,lat,long
2018-05-06 00:00:00+00:00,253.0,248.0,13.7,15.67,,47.59359,-54.27349
2018-05-06 00:10:00+00:00,258.0,260.0,12.64,14.86,,47.59359,-54.27349
2018-05-06 00:20:00+00:00,262.0,264.0,13.7,16.27,,47.59359,-54.27349
2018-05-06 00:30:00+00:00,259.0,254.0,13.36,15.75,,47.59359,-54.27349
2018-05-06 00:40:00+00:00,260.0,260.0,13.83,15.8,,47.59359,-54.27349
2018-05-06 00:50:00+00:00,265.0,267.0,11.61,13.26,,47.59359,-54.27349
2018-05-06 01:00:00+00:00,266.0,267.0,15.28,18.32,,47.59359,-54.27349
2018-05-06 01:10:00+00:00,268.0,277.0,13.03,15.03,,47.59359,-54.27349
2018-05-06 01:20:00+00:00,272.0,268.0,12.31,14.96,,47.59359,-54.27349
2018-05-06 01:30:00+00:00,266.0,265.0,12.54,16.26,,47.59359,-54.27349
2018-05-06 01:40:00+00:00,267.0,267.0,13.41,17.36,,47.59359,-54.27349
2018-05-06 01:50:00+00:00,269.0,281.0,13.37,16.97,,47.59359,-54.27349
2018-05-06 02:00:00+00:00,266.0,269.0,11.64,15.02,,47.59359,-54.27349
2018-05-06 02:10:00+00:00,269.0,271.0,13.04,15.56,,47.59359,-54.27349
2018-05-06 02:20:00+00:00,256.0,261.0,11.63,13.07,,47.59359,-54.27349
2018-05-06 02:30:00+00:00,265.0,270.0,11.81,15.3,,47.59359,-54.27349
2018-05-06 02:40:00+00:00,268.0,270.0,12.17,14.34,,47.59359,-54.27349
2018-05-06 02:50:00+00:00,266.0,267.0,12.73,15.2,,47.59359,-54.27349
2018-05-06 03:00:00+00:00,271.0,270.0,11.91,16.32,,47.59359,-54.27349
2018-05-06 03:10:00+00:00,265.0,258.0,12.74,15.89,,47.59359,-54.27349
2018-05-06 03:20:00+00:00,269.0,272.0,11.57,13.69,,47.59359,-54.27349
2018-05-06 03:30:00+00:00,277.0,273.0,13.87,18.18,,47.59359,-54.27349
2018-05-06 03:40:00+00:00,276.0,283.0,13.33,16.41,,47.59359,-54.27349
2018-05-06 03:50:00+00:00,281.0,289.0,15.29,18.66,,47.59359,-54.27349
2018-05-06 04:00:00+00:00,277.0,273.0,12.18,14.8,,47.59359,-54.27349
2018-05-06 04:10:00+00:00,277.0,280.0,13.82,16.06,,47.59359,-54.27349
2018-05-06 04:20:00+00:00,273.0,273.0,15.59,17.96,,47.59359,-54.27349
2018-05-06 04:30:00+00:00,274.0,278.0,13.5,15.58,,47.59359,-54.27349
2018-05-06 04:40:00+00:00,274.0,274.0,13.33,17.85,,47.59359,-54.27349
2018-05-06 04:50:00+00:00,275.0,278.0,13.97,16.27,,47.59359,-54.27349
2018-05-06 05:00:00+00:00,280.0,290.0,14.99,18.66,,47.59359,-54.27349
2018-05-06 05:10:00+00:00,271.0,274.0,15.62,18.36,,47.59359,-54.27349
2018-05-06 05:20:00+00:00,268.0,272.0,13.78,16.49,,47.59359,-54.27349
2018-05-06 05:30:00+00:00,271.0,277.0,14.86,17.45,,47.59359,-54.27349
2018-05-06 05:40:00+00:00,270.0,270.0,13.96,15.48,,47.59359,-54.27349
2018-05-06 05:50:00+00:00,267.0,272.0,14.76,18.23,,47.59359,-54.27349
2018-05-06 06:00:00+00:00,269.0,269.0,12.95,14.69,,47.59359,-54.27349
2018-05-06 06:10:00+00:00,270.0,276.0,13.26,14.35,,47.59359,-54.27349
2018-05-06 06:20:00+00:00,264.0,270.0,12.99,14.9,,47.59359,-54.27349
2018-05-06 06:30:00+00:00,262.0,260.0,12.69,14.34,,47.59359,-54.27349
2018-05-06 06:40:00+00:00,263.0,267.0,13.31,14.9,,47.59359,-54.27349
2018-05-06 06:50:00+00:00,263.0,270.0,13.76,15.42,,47.59359,-54.27349
2018-05-06 07:00:00+00:00,261.0,256.0,13.12,15.06,,47.59359,-54.27349
2018-05-06 07:10:00+00:00,258.0,260.0,13.55,14.97,,47.59359,-54.27349
2018-05-06 07:20:00+00:00,263.0,263.0,12.67,15.15,,47.59359,-54.27349
2018-05-06 07:30:00+00:00,264.0,261.0,14.32,15.7,,47.59359,-54.27349
2018-05-06 07:40:00+00:00,263.0,262.0,12.87,14.5,,47.59359,-54.27349
2018-05-06 07:50:00+00:00,265.0,269.0,12.71,14.8,,47.59359,-54.27349
2018-05-06 08:00:00+00:00,271.0,272.0,12.15,14.43,,47.59359,-54.27349
2018-05-06 08:10:00+00:00,269.0,268.0,13.77,15.53,,47.59359,-54.27349
2018-05-06 08:20:00+00:00,271.0,268.0,12.59,14.66,,47.59359,-54.27349
2018-05-06 08:30:00+00:00,277.0,283.0,12.5,14.95,,47.59359,-54.27349
2018-05-06 08:40:00+00:00,273.0,276.0,12.1,14.01,,47.59359,-54.27349
2018-05-06 08:50:00+00:00,280.0,282.0,12.71,15.74,,47.59359,-54.27349
2018-05-06 09:00:00+00:00,279.0,290.0,11.72,14.09,,47.59359,-54.27349
2018-05-06 09:10:00+00:00,279.0,280.0,12.92,14.86,,47.59359,-54.27349
2018-05-06 09:20:00+00:00,283.0,286.0,13.34,15.56,,47.59359,-54.27349
2018-05-06 09:30:00+00:00,283.0,289.0,12.41,14.84,,47.59359,-54.27349
2018-05-06 09:40:00+00:00,282.0,279.0,13.66,16.96,,47.59359,-54.27349
2018-05-06 09:50:00+00:00,283.0,288.0,15.24,17.03,,47.59359,-54.27349
2018-05-06 10:00:00+00:00,286.0,293.0,15.57,18.65,,47.59359,-54.27349
2018-05-06 10:10:00+00:00,287.0,283.0,13.16,15.66,,47.59359,-54.27349
2018-05-06 10:20:00+00:00,283.0,288.0,13.78,16.65,,47.59359,-54.27349
2018-05-06 10:30:00+00:00,285.0,283.0,12.36,14.31,,47.59359,-54.27349
2018-05-06 10:40:00+00:00,287.0,297.0,14.43,19.46,,47.59359,-54.27349
2018-05-06 10:50:00+00:00,282.0,284.0,13.68,15.64,,47.59359,-54.27349
2018-05-06 11:00:00+00:00,282.0,292.0,13.33,16.4,,47.59359,-54.27349
2018-05-06 11:10:00+00:00,279.0,287.0,11.44,13.17,,47.59359,-54.27349
2018-05-06 11:20:00+00:00,284.0,287.0,13.85,16.58,,47.59359,-54.27349
2018-05-06 11:30:00+00:00,280.0,284.0,14.28,17.57,,47.59359,-54.27349
2018-05-06 11:40:00+00:00,277.0,276.0,12.54,14.46,,47.59359,-54.27349
2018-05-06 11:50:00+00:00,277.0,278.0,11.27,13.08,,47.59359,-54.27349
2018-05-06 12:00:00+00:00,275.0,276.0,11.97,13.96,,47.59359,-54.27349
2018-05-06 12:10:00+00:00,275.0,274.0,11.14,13.0,,47.59359,-54.27349
2018-05-06 12:20:00+00:00,280.0,284.0,11.44,13.58,,47.59359,-54.27349
2018-05-06 12:30:00+00:00,280.0,286.0,11.79,14.18,,47.59359,-54.27349
2018-05-06 12:40:00+00:00,273.0,272.0,8.76,12.03,,47.59359,-54.27349
2018-05-06 12:50:00+00:00,280.0,279.0,10.08,11.94,,47.59359,-54.27349
2018-05-06 13:00:00+00:00,279.0,276.0,10.9,12.42,,47.59359,-54.27349
2018-05-06 13:10:00+00:00,280.0,280.0,7.96,9.8,,47.59359,-54.27349
2018-05-06 13:20:00+00:00,278.0,277.0,12.29,14.35,,47.59359,-54.27349
2018-05-06 13:30:00+00:00,280.0,276.0,9.2,10.45,,47.59359,-54.27349
2018-05-06 13:40:00+00:00,273.0,273.0,9.18,10.21,,47.59359,-54.27349
2018-05-06 13:50:00+00:00,279.0,281.0,12.66,14.7,,47.59359,-54.27349
2018-05-06 14:00:00+00:00,273.0,274.0,10.79,12.87,,47.59359,-54.27349
2018-05-06 14:10:00+00:00,282.0,283.0,11.32,13.61,,47.59359,-54.27349
2018-05-06 14:20:00+00:00,279.0,287.0,10.82,12.2,,47.59359,-54.27349
2018-05-06 14:30:00+00:00,280.0,280.0,11.52,13.11,,47.59359,-54.27349
2018-05-06 14:40:00+00:00,283.0,290.0,14.73,17.98,,47.59359,-54.27349
2018-05-06 14:50:00+00:00,279.0,279.0,11.25,13.05,,47.59359,-54.27349
2018-05-06 15:00:00+00:00,277.0,283.0,12.47,15.09,,47.59359,-54.27349
2018-05-06 15:10:00+00:00,276.0,277.0,11.94,13.04,,47.59359,-54.27349
2018-05-06 15:20:00+00:00,275.0,281.0,9.34,11.06,,47.59359,-54.27349
2018-05-06 15:30:00+00:00,271.0,271.0,9.54,10.92,,47.59359,-54.27349
2018-05-06 15:40:00+00:00,279.0,278.0,10.33,11.32,,47.59359,-54.27349
2018-05-06 15:50:00+00:00,279.0,277.0,10.41,11.48,,47.59359,-54.27349
2018-05-06 16:00:00+00:00,273.0,277.0,10.57,13.31,,47.59359,-54.27349
2018-05-06 16:10:00+00:00,273.0,274.0,11.84,13.93,,47.59359,-54.27349
2018-05-06 16:20:00+00:00,272.0,271.0,9.76,12.33,,47.59359,-54.27349
2018-05-06 16:30:00+00:00,278.0,282.0,11.55,13.41,,47.59359,-54.27349
2018-05-06 16:40:00+00:00,269.0,271.0,12.84,14.93,,47.59359,-54.27349
2018-05-06 16:50:00+00:00,268.0,270.0,13.02,14.69,,47.59359,-54.27349
2018-05-06 17:00:00+00:00,272.0,269.0,12.04,13.39,,47.59359,-54.27349
2018-05-06 17:10:00+00:00,271.0,276.0,13.25,15.51,,47.59359,-54.27349
2018-05-06 17:20:00+00:00,274.0,277.0,14.21,16.34,,47.59359,-54.27349
2018-05-06 17:30:00+00:00,275.0,274.0,12.4,14.36,,47.59359,-54.27349
2018-05-06 17:40:00+00:00,276.0,280.0,13.54,15.11,,47.59359,-54.27349
2018-05-06 17:50:00+00:00,273.0,273.0,14.27,16.26,,47.59359,-54.27349
2018-05-06 18:00:00+00:00,269.0,269.0,13.08,14.57,,47.59359,-54.27349
2018-05-06 18:10:00+00:00,272.0,272.0,10.35,12.87,,47.59359,-54.27349
2018-05-06 18:20:00+00:00,275.0,275.0,11.52,13.28,,47.59359,-54.27349
2018-05-06 18:30:00+00:00,280.0,281.0,11.01,12.26,,47.59359,-54.27349
2018-05-06 18:40:00+00:00,267.0,268.0,10.78,12.21,,47.59359,-54.27349
2018-05-06 18:50:00+00:00,274.0,273.0,12.81,14.13,,47.59359,-54.27349
2018-05-06 19:00:00+00:00,269.0,273.0,11.67,14.0,,47.59359,-54.27349
2018-05-06 19:10:00+00:00,270.0,270.0,10.93,11.97,,47.59359,-54.27349
2018-05-06 19:20:00+00:00,271.0,271.0,9.63,10.39,,47.59359,-54.27349
2018-05-06 19:30:00+00:00,269.0,270.0,11.67,12.7,,47.59359,-54.27349
2018-05-06 19:40:00+00:00,267.0,269.0,9.88,11.43,,47.59359,-54.27349
2018-05-06 19:50:00+00:00,266.0,269.0,7.74,8.77,,47.59359,-54.27349
2018-05-06 20:00:00+00:00,269.0,269.0,8.78,9.44,,47.59359,-54.27349
2018-05-06 20:10:00+00:00,252.0,252.0,7.32,8.28,,47.59359,-54.27349
2018-05-06 20:20:00+00:00,262.0,256.0,6.87,8.38,,47.59359,-54.27349
2018-05-06 20:30:00+00:00,257.0,261.0,7.49,8.58,,47.59359,-54.27349
2018-05-06 20:40:00+00:00,258.0,269.0,5.45,7.11,,47.59359,-54.27349
2018-05-06 20:50:00+00:00,274.0,275.0,9.42,11.1,,47.59359,-54.27349
2018-05-06 21:00:00+00:00,266.0,269.0,7.17,8.1,,47.59359,-54.27349
2018-05-06 21:10:00+00:00,261.0,261.0,6.29,8.63,,47.59359,-54.27349
2018-05-06 21:20:00+00:00,270.0,272.0,8.4,9.35,,47.59359,-54.27349
2018-05-06 21:30:00+00:00,254.0,255.0,5.58,5.91,,47.59359,-54.27349
2018-05-06 21:40:00+00:00,258.0,261.0,6.7,7.69,,47.59359,-54.27349
2018-05-06 21:50:00+00:00,254.0,257.0,5.24,5.99,,47.59359,-54.27349
2018-05-06 22:00:00+00:00,246.0,244.0,8.49,10.39,,47.59359,-54.27349
2018-05-06 22:10:00+00:00,253.0,253.0,8.19,8.96,,47.59359,-54.27349
2018-05-06 22:20:00+00:00,252.0,254.0,7.99,8.44,,47.59359,-54.27349
2018-05-06 22:30:00+00:00,247.0,249.0,8.34,9.08,,47.59359,-54.27349
2018-05-06 22:40:00+00:00,249.0,250.0,8.55,9.57,,47.59359,-54.27349
2018-05-06 22:50:00+00:00,247.0,244.0,7.95,8.84,,47.59359,-54.27349
2018-05-06 23:00:00+00:00,243.0,242.0,7.55,9.38,,47.59359,-54.27349
2018-05-06 23:10:00+00:00,226.0,236.0,6.44,8.09,,47.59359,-54.27349
2018-05-06 23:20:00+00:00,220.0,219.0,6.4,7.1,,47.59359,-54.27349
2018-05-06 23:30:00+00:00,218.0,220.0,5.99,7.8,,47.59359,-54.27349
2018-05-06 23:40:00+00:00,221.0,229.0,6.7,7.52,,47.59359,-54.27349
2018-05-06 23:50:00+00:00,214.0,215.0,6.06,6.91,,47.59359,-54.27349
